Yuma MCAS, AZ

5:35 AM MST on March 25, 2017 (GMT -0700)
Yuma Marine Corps Air Station

Weather History for KNYL - December, 2012

Change the Weather History Date:

Friday, December 21, 2012

  Actual Average Record
Temperature  
Mean Temperature 55 °F 57 °F  
Max Temperature 64 °F 67 °F 80 °F (1950)
Min Temperature 45 °F 46 °F 28 °F (1968)
Degree Days  
Heating Degree Days 10 8  
Month to date heating degree days 99 152  
Since 1 July heating degree days 121 220  
Cooling Degree Days 0 0  
Month to date cooling degree days 19 0  
Year to date cooling degree days 4933 4649  
Growing Degree Days 4 (Base 50)    
Moisture  
Dew Point 22 °F    
Average Humidity 29    
Maximum Humidity 40    
Minimum Humidity 17    
Precipitation  
Precipitation 0.00 in 0.02 in 0.46 in (1997)
Month to date precipitation 0.60 0.34  
Year to date precipitation 2.97 3.39  
Sea Level Pressure  
Sea Level Pressure 30.10 in    
Wind  
Wind Speed 7 mph (North)    
Max Wind Speed 17 mph    
Max Gust Speed 24 mph    
Visibility 10 miles    
Events      
T = Trace of Precipitation, MM = Missing Value Source: NWS Daily Summary

Daily Weather History Graph

Daily Weather History Graph

Search for Another Location

Airport or City:

Trip Planner

Search our weather history database for the weather conditions in past years. The results will help you decide how hot, cold, wet, or windy it might be!

Date:

Astronomy

Dec. 21, 2012 Rise Set
Actual Time 7:36 AM MST 5:36 PM MST
Civil Twilight 7:09 AM MST 6:04 PM MST
Nautical Twilight 6:38 AM MST 6:35 PM MST
Astronomical Twilight 6:08 AM MST 7:05 PM MST
Moon 1:14 PM MST (12/21) 1:41 AM MST (12/21)
Length of Visible Light 10h 54m
Length of Day
10h 00m
Waxing Gibbous, 65% of the Moon is Illuminated
Dec 21
Waxing Gibbous
Dec 28
Full
Jan 4
Last Quarter
Jan 11
New
Jan 18
First Quarter

Hourly Weather History & Observations

Time (MST) Temp. Windchill Dew Point Humidity Pressure Visibility Wind Dir Wind Speed Gust Speed Precip Events Conditions
12:55 AM 46.9 °F - 21.9 °F 37% 30.15 in 10.0 mi North 3.5 mph - N/A   Partly Cloudy
1:55 AM 46.0 °F 43.9 °F 21.9 °F 39% 30.13 in 10.0 mi NNW 4.6 mph - N/A   Partly Cloudy
2:55 AM 46.9 °F - 21.0 °F 36% 30.12 in 10.0 mi North 5.8 mph - N/A   Clear
3:55 AM 46.0 °F 41.9 °F 21.0 °F 37% 30.11 in 10.0 mi North 8.1 mph - N/A   Clear
4:55 AM 46.0 °F 41.9 °F 21.0 °F 37% 30.10 in 10.0 mi North 8.1 mph - N/A   Clear
5:55 AM 45.0 °F 39.7 °F 21.0 °F 39% 30.09 in 10.0 mi North 10.4 mph - N/A   Clear
6:55 AM 46.0 °F 39.9 °F 21.0 °F 37% 30.12 in 10.0 mi North 13.8 mph - N/A   Clear
7:55 AM 46.0 °F 40.6 °F 21.0 °F 37% 30.13 in 10.0 mi North 11.5 mph - N/A   Partly Cloudy
8:55 AM 48.0 °F - 21.9 °F 36% 30.13 in 10.0 mi NNE 6.9 mph - N/A   Partly Cloudy
9:55 AM 52.0 °F - 19.9 °F 28% 30.14 in 10.0 mi NNE 11.5 mph - N/A   Scattered Clouds
10:55 AM 55.9 °F - 21.9 °F 27% 30.15 in 10.0 mi NNE 9.2 mph - N/A   Mostly Cloudy
11:55 AM 60.1 °F - 21.0 °F 22% 30.12 in 10.0 mi NNE 11.5 mph - N/A   Mostly Cloudy
12:55 PM 62.1 °F - 21.0 °F 21% 30.09 in 10.0 mi North 8.1 mph - N/A   Mostly Cloudy
1:55 PM 63.0 °F - 19.0 °F 18% 30.06 in 10.0 mi NNE 9.2 mph - N/A   Mostly Cloudy
2:55 PM 63.0 °F - 18.0 °F 18% 30.06 in 10.0 mi North 8.1 mph - N/A   Mostly Cloudy
3:55 PM 63.0 °F - 19.9 °F 19% 30.05 in 10.0 mi North 4.6 mph - N/A   Mostly Cloudy
4:55 PM 60.1 °F - 21.9 °F 23% 30.05 in 10.0 mi NNW 5.8 mph - N/A   Overcast
5:55 PM 57.0 °F - 23.0 °F 27% 30.06 in 10.0 mi North 6.9 mph - N/A   Overcast
6:55 PM 55.9 °F - 24.1 °F 29% 30.09 in 10.0 mi North 6.9 mph - N/A   Overcast
7:55 PM 54.0 °F - 25.0 °F 33% 30.08 in 10.0 mi North 6.9 mph - N/A   Overcast
8:55 PM 54.0 °F - 26.1 °F 34% 30.09 in 10.0 mi North 4.6 mph - N/A   Overcast
9:55 PM 52.0 °F - 26.1 °F 37% 30.09 in 10.0 mi NNW 3.5 mph - N/A   Overcast
10:55 PM 52.0 °F - 27.0 °F 38% 30.09 in 10.0 mi Calm Calm - N/A   Overcast
11:55 PM 52.0 °F - 27.0 °F 38% 30.08 in 10.0 mi North 3.5 mph - N/A   Overcast